This demonstration page uses our WeatherBlox Daily Observations layout. Learn more.

Left ArrowRight Arrow

Hourly Observations for January 18, 2017

Temp ( °F °C ) Dew Point ( °F °C ) Humidity (%) Winds ( mph kmh ) Pressure ( in mb ) Visibility ( mi km ) Precip ( " mm )
12:53 am 00:53 Cloudy with Mist and Fog 44 6.7 43 6.1 96 96 S 3 6 30.09 1019 4 6 0.00 0.00
1:53 am 01:53 Cloudy with Light Rain 44 6.7 43 6.1 96 96 Calm 30.07 1018 3 5 0.03 0.76
2:22 am 02:22 Cloudy with Mist and Fog 45 7 43 6 93 93 Calm 30.06 1018 3 4 0.00 0.00
2:40 am 02:40 Cloudy with Mist and Fog 45 7 43 6 93 93 Calm 30.06 1018 3 4 0.00 0.00
2:53 am 02:53 Cloudy with Light Rain 44 6.7 43 6.1 96 96 Calm 30.07 1018 2 3 0.00 0.00
3:23 am 03:23 Cloudy with Light Rain 44 6.7 43 6.1 96 96 N 5 7 30.06 1018 2 3 0.02 0.51
3:34 am 03:34 Cloudy with Light Rain 45 7 43 6 93 93 Calm 30.06 1018 3 4 0.00 0.00
3:53 am 03:53 Cloudy with Light Rain 44 6.7 43 6.1 96 96 ENE 5 7 30.07 1018 2 3 0.04 1.02
4:03 am 04:03 Cloudy with Light Rain 44 6.7 43 6.1 96 96 E 5 7 30.06 1018 2 3 0.01 0.25
4:09 am 04:09 Cloudy with Light Rain 45 7 45 7 100 100 ENE 5 7 30.06 1018 2 3 0.00 0.00
4:17 am 04:17 Cloudy with Mist and Fog 44 6.7 43 6.1 96 96 E 5 7 30.06 1018 3 4 0.01 0.25
4:27 am 04:27 Cloudy with Mist and Fog 44 6.7 43 6.1 96 96 ENE 5 7 30.06 1018 3 4 0.01 0.25
4:53 am 04:53 Cloudy with Mist and Fog 44 6.7 43 6.1 96 96 NNE 3 6 30.04 1017 3 4 0.01 0.25
5:17 am 05:17 Cloudy with Light Rain 44 6.7 42 5.6 93 93 Calm 30.03 1017 3 5 0.00 0.00
5:32 am 05:32 Cloudy with Light Rain 45 7 43 6 93 93 Calm 30.03 1017 2 3 0.00 0.00
5:45 am 05:45 Cloudy with Mist and Fog 44 6.7 43 6.1 96 96 WNW 3 6 30.03 1017 2 3 0.00 0.00
5:53 am 05:53 Cloudy with Light Rain 44 6.7 43 6.1 96 96 WNW 3 6 30.02 1017 2 3 0.00 0.00
6:53 am 06:53 Cloudy with Light Rain 43 6.1 43 6.1 100 100 W 5 7 29.99 1016 2 3 0.00 0.00
7:07 am 07:07 Cloudy with Light Rain 44 6.7 43 6.1 96 96 WSW 5 7 29.97 1015 3 5 0.01 0.25
7:15 am 07:15 Cloudy with Light Rain 44 6.7 43 6.1 96 96 SSW 5 7 29.97 1015 2 3 0.01 0.25
7:53 am 07:53 Cloudy with Light Rain 44 6.7 42 5.6 93 93 S 5 7 29.94 1014 2 3 0.01 0.25
8:00 am 08:00 Cloudy with Mist and Fog 45 7 43 6 93 93 SSW 6 9 29.94 1014 4 6 0.00 0.00
8:24 am 08:24 Cloudy with Light Rain 45 7 43 6 93 93 SSW 8 13 29.94 1014 3 4 0.00 0.00
8:53 am 08:53 Cloudy with Light Rain 45 7.2 43 6.1 93 93 S 7 11 29.94 1014 3 4 0.02 0.51
9:53 am 09:53 Cloudy with Light Rain 45 7.2 43 6.1 93 93 S 15 24 29.93 1014 2 3 0.08 2.03
10:00 am 10:00 Cloudy with Rain 45 7 43 6 93 93 SSE 9 15 29.94 1014 3 4 0.00 0.00
10:15 am 10:15 Cloudy with Light Rain 45 7.2 43 6.1 93 93 S 12 19 29.94 1014 3 4 0.04 1.02
10:31 am 10:31 Cloudy with Light Rain 45 7.2 44 6.7 97 97 SSE 12 19 29.94 1014 3 4 0.07 1.78
10:53 am 10:53 Cloudy with Light Rain 46 7.8 44 6.7 93 93 S 14 22 29.92 1013 3 4 0.08 2.03
11:25 am 11:25 Cloudy with Rain 45 7.2 44 6.7 97 97 SSE 14 22 29.91 1013 2 3 0.05 1.27
11:33 am 11:33 Cloudy with Rain 45 7.2 44 6.7 97 97 S 14 22 29.91 1013 2 3 0.08 2.03
11:53 am 11:53 Cloudy with Light Rain 45 7.2 43 6.1 93 93 S 18 30 29.86 1011 2 3 0.13 3.30
12:00 pm 12:00 Cloudy with Rain 46 8 45 7 93 93 S 20 31 29.88 1012 3 5 0.00 0.00
12:08 pm 12:08 Cloudy with Rain 46 8 45 7 93 93 S 20 31 29.88 1012 2 3 0.00 0.00
12:18 pm 12:18 Cloudy with Light Rain 46 8 45 7 93 93 S 21 33 29.85 1011 2 3 0.00 0.00
12:29 pm 12:29 Cloudy with Light Rain 46 7.8 44 6.7 93 93 S 20 31 29.85 1011 2 3 0.04 1.02
12:36 pm 12:36 Cloudy with Rain 46 8 45 7 93 93 S 21 33 29.85 1011 2 3 0.00 0.00
12:53 pm 12:53 Cloudy with Rain 46 7.8 44 6.7 93 93 S 22 35 29.80 1009 2 3 0.09 2.29
1:53 pm 13:53 Cloudy with Rain 47 8.3 44 6.7 90 90 S 25 41 29.76 1008 3 4 0.16 4.06
2:15 pm 14:15 Cloudy with Rain 46 7.8 45 7.2 96 96 S 28 44 29.77 1008 3 5 0.05 1.27
2:49 pm 14:49 Cloudy with Rain 46 8 45 7 93 93 S 33 54 29.74 1007 3 5 0.11 2.79
2:53 pm 14:53 Cloudy with Rain 46 7.8 44 6.7 93 93 S 29 46 29.71 1006 3 5 0.11 2.79
3:53 pm 15:53 Cloudy with Rain 46 7.8 43 6.1 89 89 S 36 57 29.70 1006 4 6 0.13 3.30
4:25 pm 16:25 Cloudy with Rain 47 8.3 43 6.1 86 86 S 28 44 29.74 1007 4 6 0.07 1.78
4:53 pm 16:53 Cloudy with Rain 46 7.8 44 6.7 93 93 S 25 41 29.70 1006 5 8 0.10 2.54
5:53 pm 17:53 Cloudy with Light Rain 47 8.3 44 6.7 90 90 S 25 41 29.67 1005 7 11 0.07 1.78
6:05 pm 18:05 Cloudy with Light Rain 47 8.3 44 6.7 90 90 S 30 48 29.71 1006 10 16 0.01 0.25
6:53 pm 18:53 Cloudy with Light Rain 44 6.7 42 5.6 93 93 S 33 54 29.67 1005 6 10 0.05 1.27
7:44 pm 19:44 Cloudy with Light Rain 46 8 43 6 87 87 SSE 22 35 29.68 1005 10 16 0.00 0.00
7:53 pm 19:53 Cloudy with Light Rain 46 7.8 43 6.1 89 89 S 20 31 29.66 1004 10 16 0.05 1.27
8:16 pm 20:16 Cloudy with Light Rain 46 7.8 44 6.7 93 93 SSE 23 37 29.68 1005 9 14 0.02 0.51
8:53 pm 20:53 Cloudy with Light Rain 47 8.3 44 6.7 90 90 SSE 25 41 29.64 1004 10 16 0.04 1.02
9:01 pm 21:01 Cloudy with Light Rain 47 8.3 44 6.7 90 90 S 26 43 29.68 1005 10 16 0.00 0.00
9:39 pm 21:39 Cloudy with Light Rain 47 8.3 44 6.7 90 90 S 20 31 29.65 1004 10 16 0.03 0.76
9:53 pm 21:53 Cloudy with Light Rain 47 8.3 44 6.7 90 90 S 22 35 29.64 1004 10 16 0.03 0.76
10:31 pm 22:31 Cloudy with Light Rain 47 8.3 45 7.2 93 93 S 17 28 29.68 1005 10 16 0.01 0.25
10:53 pm 22:53 Cloudy with Light Rain 47 8.3 45 7.2 93 93 S 18 30 29.66 1005 10 16 0.01 0.25
11:53 pm 23:53 Cloudy with Rain 46 7.8 45 7.2 96 96 WSW 6 9 29.69 1005 4 6 0.11 2.79

Powered by AerisWeather